Notices

What's New in latest Release from April 7th, 2021:

- Updated Glossary, including Speed of Maximum Gust, and Total Hourly Precipitation

- Updated national and regional climate services offices contacts and prices information

- Addition of station inventory lists for 1981-2010, 1971-2000, and 1961-1990 Normals.

If you haven't already, please take our survey and provide feedback about our website: https://eccc.sondage-survey.ca/f/LanguageSelection.aspx?s=442ca660-fcf1-47c0-95a9-59707d6fd709

Hourly Data Report for December 26, 2020

MUSKOKA
ONTARIO
Current Station Operator: NAVCAN

44°58'29.000" N
79°18'12.000" W
281.90 m
6115529
71532
YQA

Download Data

Hourly Data (December 2020)
Hourly Data Report for December 26, 2020
TIME
LST
Temp Definition
°C
Dew Point Definition
°C
Rel Hum Definition
%
Precip. Amount Definition
mm

Wind Dir Definition
10's deg

Wind Spd Definition
km/h
Visibility Definition
km
Stn Press Definition
kPa
Hmdx Definition


Wind Chill Definition


Weather Definition


00:00 -9.9 -11.5 88 LegendMM 25 11 3.6 96.46   -15 Snow
01:00 -10.0 -11.9 86 LegendMM 30 17 2.0 96.49   -17 Snow
02:00 -10.4 -12.5 85 LegendMM 28 8 6.4 96.53   -15 Snow
03:00 -10.6 -12.5 86 LegendMM 33 13 2.0 96.60   -17 Snow
04:00 -11.1 -13.0 86 LegendMM 31 9 8.1 96.64   -16 Snow
05:00 -11.7 -13.5 87 LegendMM 34 9 3.2 96.71   -17 Snow
06:00 -11.8 -13.7 86 LegendMM 35 8 11.3 96.79   -17 Snow
07:00 -11.5 -13.4 86 LegendMM 32 5 9.7 96.89   -15 Snow
08:00 -11.4 -13.1 87 LegendMM   0 8.1 96.95     Snow
09:00 -11.1 -12.7 88 0.0 15 5 2.4 97.01   -14 Snow
10:00 -10.5 -12.3 87 0.0 13 5 6.4 97.07   -14 Snow
11:00 -9.9 -11.8 86 0.0 17 5 3.2 97.12   -13 Snow
12:00 -8.9 -10.8 86 190.0   0 9.7 97.09     Snow
13:00 -8.0 -10.3 84 LegendMM 35 9 16.1 97.11   -13 LegendNANA
14:00 -7.6 -10.0 83 LegendMM 31 9 16.1 97.15   -12 LegendNANA
15:00 -7.0 -9.6 82 LegendMM 29 13 16.1 97.26   -13 LegendNANA
16:00 -7.2 -9.5 84 LegendMM 33 8 11.3 97.33   -11 Snow
17:00 -7.6 -10.0 83 LegendMM 32 11 16.1 97.43   -13 Snow
18:00 -7.8 -10.1 84 LegendMM 33 11 16.1 97.48   -13 Snow
19:00 -7.9 -10.5 82 LegendMM 33 15 16.1 97.58   -14 Snow
20:00 -8.0 -10.4 83 LegendMM 34 5 16.1 97.65   -11 Snow
21:00 -8.3 -11.2 80 LegendMM LegendMM 4 16.1 97.71   -10 Snow
22:00 -8.4 -11.1 81 LegendMM 33 4 14.5 97.77   -11 Snow
23:00 -8.8 -11.3 82 LegendMM 33 8 14.5 97.80   -13 Snow

Notes on Data Quality.

Legend

  • E = Estimated
  • M = Missing
  • NA = Not Available*
  • [empty] = Indicates an unobserved value
Date modified: